TimeEDT,TemperatureF,Dew PointF,Humidity,Sea Level PressureIn,VisibilityMPH,Wind Direction,Wind SpeedMPH,Gust SpeedMPH,PrecipitationIn,Events,Conditions,WindDirDegrees,DateUTC
12:53 AM,68.0,61.0,78,29.97,10.0,SSE,8.1,-,N/A,,Clear,160,2013-03-12 04:53:00
1:53 AM,68.0,61.0,78,29.95,10.0,South,10.4,19.6,N/A,,Clear,170,2013-03-12 05:53:00
2:53 AM,68.0,61.0,78,29.94,10.0,South,12.7,17.3,N/A,,Clear,170,2013-03-12 06:53:00
3:53 AM,66.9,61.0,81,29.92,10.0,SSE,8.1,-,N/A,,Clear,150,2013-03-12 07:53:00
4:53 AM,66.0,61.0,84,29.91,10.0,SSE,5.8,-,N/A,,Clear,150,2013-03-12 08:53:00
5:53 AM,66.0,61.0,84,29.92,10.0,SSE,6.9,-,N/A,,Clear,150,2013-03-12 09:53:00
6:53 AM,66.0,62.1,87,29.91,10.0,South,9.2,-,N/A,,Clear,170,2013-03-12 10:53:00
7:53 AM,68.0,63.0,84,29.94,10.0,South,6.9,-,N/A,,Mostly Cloudy,170,2013-03-12 11:53:00
8:53 AM,69.1,64.0,84,29.94,10.0,SSE,8.1,-,N/A,,Mostly Cloudy,160,2013-03-12 12:53:00
9:53 AM,73.0,66.0,79,29.96,10.0,South,10.4,-,N/A,,Overcast,170,2013-03-12 13:53:00
10:53 AM,73.0,66.9,81,30.00,10.0,SSW,12.7,19.6,N/A,,Overcast,210,2013-03-12 14:53:00
11:53 AM,71.1,66.9,87,30.01,2.0,SSW,12.7,23.0,0.00,Rain,Light Rain,210,2013-03-12 15:53:00
12:35 PM,71.6,66.2,83,29.98,4.0,SSW,9.2,21.9,0.01,,Overcast,200,2013-03-12 16:35:00
12:53 PM,71.1,66.0,84,29.99,4.0,SSW,12.7,18.4,0.01,,Haze,200,2013-03-12 16:53:00
1:53 PM,73.9,66.0,76,29.96,10.0,SSW,18.4,23.0,N/A,,Mostly Cloudy,200,2013-03-12 17:53:00
2:38 PM,73.4,66.2,78,29.95,10.0,SW,16.1,23.0,N/A,,Overcast,220,2013-03-12 18:38:00
2:53 PM,73.0,66.9,81,29.96,10.0,SW,13.8,21.9,N/A,,Overcast,220,2013-03-12 18:53:00
3:22 PM,71.6,66.2,83,29.95,9.0,SW,18.4,24.2,N/A,,Overcast,220,2013-03-12 19:22:00
3:39 PM,68.0,64.4,88,29.95,7.0,WNW,15.0,-,N/A,,Overcast,300,2013-03-12 19:39:00
3:53 PM,66.0,63.0,90,29.96,6.0,WNW,12.7,-,N/A,,Overcast,300,2013-03-12 19:53:00
4:53 PM,66.0,62.1,87,29.96,10.0,WNW,8.1,-,N/A,,Overcast,300,2013-03-12 20:53:00
5:08 PM,66.2,62.6,88,29.95,5.0,WNW,8.1,-,N/A,,Overcast,300,2013-03-12 21:08:00
5:32 PM,66.2,60.8,83,29.95,10.0,WNW,9.2,-,N/A,,Overcast,300,2013-03-12 21:32:00
5:53 PM,66.9,61.0,81,29.96,10.0,NW,6.9,-,N/A,,Overcast,310,2013-03-12 21:53:00
6:53 PM,66.9,60.1,79,29.96,10.0,WNW,5.8,-,N/A,,Overcast,300,2013-03-12 22:53:00
7:53 PM,64.9,57.9,78,29.99,10.0,WNW,9.2,-,N/A,,Overcast,290,2013-03-12 23:53:00
8:14 PM,64.4,57.2,77,29.99,10.0,WNW,8.1,-,N/A,,Overcast,290,2013-03-13 00:14:00
8:53 PM,64.0,57.0,78,30.01,10.0,NW,9.2,-,N/A,,Mostly Cloudy,310,2013-03-13 00:53:00
9:53 PM,61.0,54.0,78,30.02,10.0,NW,10.4,-,N/A,,Clear,320,2013-03-13 01:53:00
10:53 PM,60.1,54.0,80,30.04,10.0,NNW,10.4,-,N/A,,Clear,330,2013-03-13 02:53:00
11:53 PM,59.0,52.0,78,30.05,10.0,NNW,6.9,-,N/A,,Clear,340,2013-03-13 03:53:00